KF6RAL-6 Weather Reports


Display with metric or nautical units.
time (UTC)temp
F
wind
direction
speed
MPH
gust
MPH
rain 1hr
in
rain 24hr
in
rain mn
in
humidity
%
barometer
mb
20180619003957 0 20 11.0 17.0 0.01 5.41 0.12 1013.7
20180619002555 0 20 5.0 10.0 0.00 5.90 0.11 1013.7
20180619001855 0 12 5.0 7.0 0.00 6.42 0.11 1013.8
20180619001152 0 0 0.0 5.0 0.00 6.84 0.11 1013.8
20180619000451 0 0 0.0 7.0 0.00 6.91 0.11 1013.9
20180618235750 0 353 4.0 10.0 0.00 7.52 0.11 1014.1
20180618234349 0 353 6.0 9.0 0.00 7.52 0.11 1014.1
20180618233650 0 354 4.0 10.0 0.00 7.82 0.11 1014.1
20180618232947 0 350 6.0 11.0 0.00 7.88 0.11 1014.1
20180618232246 0 345 7.0 11.0 0.00 8.15 0.11 1014.3
20180618231545 0 351 7.0 11.0 0.00 8.25 0.11 1014.2
20180618230843 0 349 7.0 11.0 0.00 8.61 0.11 1014.2
20180618225442 0 350 5.0 10.0 0.00 8.97 0.11 1014.3
20180618224740 0 351 6.0 10.0 0.00 9.15 0.11 1014.3
20180618224039 0 344 7.0 10.0 0.00 9.15 0.11 1014.3
20180618223339 0 345 6.0 11.0 0.00 9.49 0.11 1014.3
20180618221936 0 352 7.0 11.0 0.00 9.71 0.11 1014.2
20180618220536 0 5 4.0 10.0 0.00 9.90 0.11 1014.2
20180618215834 0 321 2.0 5.0 0.00 1.01 0.11 1014.3
20180618215133 0 0 0.0 6.0 0.00 1.02 0.11 1014.3
20180618214432 0 329 2.0 9.0 0.00 1.02 0.11 1014.3
20180618213731 0 330 3.0 11.0 0.00 1.03 0.11 1014.4
20180618213031 0 344 5.0 7.0 0.00 1.05 0.11 1014.4
20180618212330 0 319 2.0 7.0 0.00 1.05 0.11 1014.4
20180618210927 0 316 3.0 7.0 0.00 1.07 0.11 1014.4
20180618210226 0 320 3.0 7.0 0.00 1.07 0.11 1014.5
20180618205525 0 0 0.0 7.0 0.00 1.07 0.11 1014.6
20180618204824 0 333 1.0 9.0 0.00 1.07 0.11 1014.5
20180618204123 0 323 4.0 9.0 0.00 1.07 0.11 1014.5
20180618203422 0 302 2.0 9.0 0.00 1.07 0.11 1014.6
20180618202720 0 301 3.0 12.0 0.00 1.08 0.11 1014.6
20180618202022 0 300 3.0 7.0 0.00 1.08 0.11 1014.7
20180618201319 0 307 1.0 6.0 0.00 1.09 0.11 1014.6
20180618200618 0 315 3.0 9.0 0.00 1.11 0.11 1014.7
20180618195917 0 305 4.0 9.0 0.00 1.11 0.11 1014.7
20180618195216 0 319 3.0 12.0 0.00 1.13 0.11 1014.6
20180618194517 0 303 6.0 12.0 0.00 1.13 0.11 1014.6
20180618193113 0 319 3.0 10.0 0.00 1.14 0.11 1014.7
20180618192412 0 324 3.0 12.0 0.00 1.14 0.11 1014.7
20180618191711 0 47 5.0 10.0 0.00 1.15 0.11 1014.7
20180618191010 0 48 6.0 10.0 0.00 1.15 0.11 1014.6
20180618190309 0 51 4.0 7.0 0.00 1.15 0.11 1014.7
20180618185608 0 51 2.0 6.0 0.00 1.15 0.11 1014.7
20180618184907 0 44 1.0 9.0 0.00 1.15 0.11 1014.7
20180618184206 0 33 5.0 9.0 0.02 1.15 0.11 1014.8
20180618183505 0 34 5.0 8.0 0.02 1.15 0.11 1015.0
20180618182806 0 0 0.0 8.0 0.02 1.15 0.11 1014.9
20180618182103 0 344 3.0 10.0 0.02 1.15 0.11 1014.9
20180618180701 0 328 1.0 9.0 0.02 1.15 0.11 1014.9
20180618180002 0 314 4.0 9.0 0.02 1.15 0.11 1014.8
20180618175259 0 316 1.0 7.0 0.02 1.15 0.11 1014.8
20180618174559 0 302 3.0 7.0 0.00 1.15 0.09 1014.8
20180618173156 0 301 3.0 7.0 0.00 1.16 0.09 1014.9
20180618172455 0 310 3.0 6.0 0.00 1.16 0.09 1015.0
20180618171755 0 0 0.0 7.0 0.00 1.16 0.09 1014.8
20180618171053 0 320 3.0 10.0 0.00 1.16 0.09 1014.8
20180618165651 0 306 2.0 9.0 0.00 1.17 0.09 1014.7
20180618164950 0 300 3.0 8.0 0.00 1.17 0.09 1014.6
20180618164248 0 335 4.0 9.0 0.00 1.17 0.09 1014.5
20180618162847 0 302 4.0 7.0 0.01 1.17 0.09 1014.4
20180618160744 0 331 2.0 9.0 0.01 1.17 0.09 1014.5
20180618160042 0 345 4.0 9.0 0.01 1.17 0.09 1014.5
20180618155342 0 330 1.0 6.0 0.01 1.20 0.09 1014.5
20180618154641 0 320 2.0 9.0 0.01 1.20 0.09 1014.5
20180618153940 0 333 2.0 9.0 0.01 1.22 0.09 1014.5
20180618152538 0 308 2.0 11.0 0.00 1.22 0.08 1014.3
20180618151837 0 296 3.0 7.0 0.00 1.24 0.08 1014.1
20180618150435 0 0 0.0 0.0 0.00 1.25 0.08 1014.0
20180618145734 0 0 0.0 5.0 0.00 1.26 0.08 1013.9
20180618145032 0 294 2.0 7.0 0.01 1.29 0.08 1013.9
20180618144332 0 290 4.0 7.0 0.01 1.29 0.08 1013.8
20180618143631 0 269 2.0 10.0 0.01 1.32 0.08 1013.8
20180618142929 0 0 0.0 0.0 0.01 1.38 0.08 1013.6
20180618142228 0 0 0.0 0.0 0.01 1.40 0.08 1013.5
20180618141532 0 0 0.0 0.0 0.01 1.40 0.08 1013.4
20180618140825 0 0 0.0 0.0 0.01 1.42 0.08 1013.3
20180618140125 0 0 0.0 0.0 0.01 1.42 0.08 1013.1
20180618135423 0 0 0.0 0.0 0.00 1.43 0.07 1013.1
20180618134722 0 0 0.0 0.0 0.00 1.44 0.07 1013.1
20180618134021 0 0 0.0 0.0 0.00 1.44 0.07 1013.1
20180618132620 0 0 0.0 0.0 0.00 1.50 0.07 1012.9
20180618131922 0 0 0.0 0.0 0.00 1.54 0.07 1012.7
20180618130517 0 0 0.0 0.0 0.00 1.68 0.07 1012.5
20180618125816 0 0 0.0 0.0 0.00 1.79 0.07 1012.4
20180618125115 0 0 0.0 0.0 0.00 1.91 0.07 1012.0
20180618124413 0 0 0.0 0.0 0.00 1.91 0.07 1011.9
20180618123714 0 0 0.0 6.0 0.00 1.98 0.07 1012.0
20180618123012 0 237 2.0 7.0 0.00 2.09 0.07 1012.1
20180618122310 0 243 3.0 7.0 0.00 2.15 0.07 1012.0
20180618121610 0 245 4.0 10.0 0.00 2.19 0.07 1011.9
20180618120908 0 247 4.0 11.0 0.00 2.27 0.07 1011.7
20180618120207 0 263 5.0 12.0 0.00 2.38 0.07 1011.7
20180618114805 0 260 8.0 15.0 0.00 2.60 0.07 1011.5
20180618114104 0 242 11.0 15.0 0.01 2.66 0.07 1011.3
20180618113403 0 252 5.0 11.0 0.01 2.82 0.07 1011.2
20180618112001 0 256 7.0 13.0 0.01 2.88 0.07 1011.2
20180618111300 0 256 4.0 14.0 0.01 2.91 0.07 1011.2
20180618110559 0 243 11.0 16.0 0.01 2.94 0.07 1011.0
20180618105858 0 233 12.0 21.0 0.01 3.03 0.07 1011.0
20180618105157 0 232 15.0 21.0 0.01 3.06 0.07 1011.0
20180618104458 0 237 16.0 19.0 0.00 3.10 0.06 1011.0
20180618103758 0 225 12.0 19.0 0.00 3.14 0.06 1010.9
20180618103055 0 236 14.0 18.0 0.00 3.19 0.06 1010.8
20180618102354 0 225 12.0 18.0 0.00 3.19 0.06 1010.8
20180618101653 0 231 9.0 16.0 0.02 3.24 0.06 1010.9
20180618100952 0 240 12.0 16.0 0.04 3.31 0.06 1010.8
20180618100250 0 241 12.0 16.0 0.05 3.33 0.06 1010.9
20180618095549 0 238 12.0 17.0 0.05 3.34 0.06 1010.9
20180618094147 0 235 15.0 19.0 0.05 3.38 0.06 1010.9
20180618093446 0 228 12.0 20.0 0.05 3.38 0.06 1010.8
20180618092745 0 239 14.0 20.0 0.05 3.39 0.06 1010.9
20180618092044 0 238 16.0 21.0 0.05 3.39 0.06 1010.9
20180618091343 0 241 16.0 21.0 0.01 3.41 0.02 1010.8
20180618090642 0 241 16.0 22.0 0.01 3.42 0.01 1010.9
20180618085240 0 237 17.0 20.0 0.01 3.48 0.01 1010.8
20180618084539 0 237 14.0 18.0 0.01 3.49 0.01 1010.7
20180618083838 0 224 14.0 18.0 0.01 3.51 0.01 1010.8
20180618083137 0 223 10.0 18.0 0.01 3.51 0.01 1010.8
20180618082436 0 218 14.0 18.0 0.01 3.51 0.01 1010.7
20180618081735 0 226 14.0 19.0 0.01 3.51 0.01 1010.7
20180618081034 0 246 8.0 14.0 0.00 3.51 0.00 1010.4
20180618075632 0 238 7.0 15.0 0.00 3.52 0.00 1010.5
20180618074933 0 238 9.0 17.0 0.00 3.56 0.00 1010.4
20180618074232 0 230 12.0 17.0 0.00 3.58 0.00 1010.7
20180618073529 0 237 3.0 7.0 0.00 3.58 0.00 1010.7
20180618072828 0 0 0.0 6.0 0.00 3.59 0.00 1010.8
20180618072127 0 0 0.0 0.0 0.00 3.60 0.00 1010.5
20180618071426 0 0 0.0 9.0 0.00 3.60 0.00 1010.7
20180618070725 0 0 0.0 13.0 0.00 3.60 0.00 1010.7
20180618070024 0 241 4.0 13.0 0.00 3.60 0.00 1010.8
20180618065323 0 263 7.0 11.0 0.00 3.60 0.00 1010.9
20180618064622 0 263 3.0 6.0 0.00 3.60 3.60 1010.9
20180618063220 0 271 8.0 15.0 0.00 3.60 3.60 1011.0
20180618062519 0 259 8.0 21.0 0.00 3.60 3.60 1010.8
20180618061818 0 238 14.0 18.0 0.00 3.60 3.60 1010.7
20180618061117 0 260 12.0 18.0 0.00 3.60 3.60 1010.6
20180618060416 0 267 12.0 17.0 0.00 3.60 3.60 1010.6
20180618055715 0 264 11.0 16.0 0.00 3.60 3.60 1010.8
20180618055014 0 261 10.0 18.0 0.01 3.60 3.60 1010.7
20180618054313 0 262 12.0 18.0 0.01 3.60 3.60 1010.4
20180618053612 0 270 14.0 18.0 0.01 3.60 3.60 1010.1
20180618052911 0 269 13.0 18.0 0.01 3.60 3.60 1010.1
20180618052210 0 263 9.0 16.0 0.01 3.60 3.60 1010.0
20180618051509 0 243 10.0 18.0 0.05 3.60 3.60 1010.2
20180618050808 0 245 10.0 18.0 0.05 3.60 3.60 1010.0
20180618050107 0 249 10.0 18.0 0.05 3.60 3.60 1010.1
20180618044706 0 272 13.0 19.0 0.04 3.60 3.60 1009.8
20180618044004 0 281 14.0 19.0 0.08 3.60 3.60 1009.3
20180618043302 0 291 13.0 21.0 0.12 3.60 3.60 1009.4
20180618042602 0 296 13.0 19.0 0.12 3.60 3.60 1009.6
20180618041903 0 308 10.0 18.0 0.12 3.59 3.59 1009.1
20180618041159 0 302 7.0 18.0 0.12 3.59 3.59 1009.3
20180618040458 0 293 4.0 17.0 0.12 3.59 3.59 1009.6
20180618035758 0 272 11.0 22.0 0.13 3.59 3.59 1008.5
20180618035058 0 263 13.0 24.0 0.13 3.59 3.59 1007.6
20180618034356 0 251 15.0 24.0 0.13 3.59 3.59 1006.9
20180618033654 0 244 16.0 33.0 0.08 3.59 3.59 1006.5
20180618032954 0 265 25.0 33.0 0.07 3.58 3.58 1005.5
20180618032252 0 258 19.0 29.0 0.83 3.58 3.58 1005.9
20180618031551 0 258 17.0 33.0 1.27 3.58 3.58 1005.8
20180618030149 0 267 24.0 33.0 2.62 3.58 3.58 1004.3
20180618024747 0 268 16.0 33.0 3.18 3.58 3.58 1004.3
20180618024046 0 269 19.0 33.0 3.52 3.58 3.58 1003.6
20180618021943 0 194 25.0 39.0 3.39 3.50 3.50 1002.6
20180618021242 0 199 14.0 44.0 3.35 3.45 3.45 1002.6
20180618020541 0 202 29.0 44.0 2.53 3.36 3.36 1002.4
20180618015840 0 213 23.0 42.0 2.00 3.30 3.30 1001.8
20180618014438 0 214 26.0 39.0 1.74 3.24 3.24 1001.9
20180618013737 0 212 18.0 42.0 1.57 3.22 3.22 1002.0
20180618013036 0 213 25.0 36.0 1.76 3.19 3.19 1001.6
20180618012336 0 202 20.0 43.0 1.75 3.19 3.19 1001.9
20180618011634 0 200 7.0 58.0 1.80 3.14 3.14 1002.0
20180618010933 0 246 8.0 38.0 1.96 3.11 3.11 1001.6
20180618010232 0 221 28.0 40.0 2.44 3.10 3.10 1001.0
20180618005531 0 208 23.0 40.0 2.41 3.10 3.10 1001.2
20180618004830 0 226 21.0 56.0 2.26 3.08 3.08 1001.0